Flag for Brunei Weather past 2 weeks in Bandar Seri Begawan, Brunei

Now
86 °F

Broken clouds.


Feels Like: 97 °F
Forecast: 76 / 89 °F
Wind: 6 mph from Northwest

Location: Brunei Airport

Current Time: Jul 29, 2014 at 2:26:56 PM

Latest Report: Jul 29, 2014 at 1:30 PM


Visibility: 4 mi

Pressure: 29.80 "Hg

Humidity: 75%

Dew point: 77 °F

Location of Bandar Seri BegawanLocation

Historic Weather in Bandar Seri Begawan — Graph

°F

Bandar Seri Begawan temperature yesterday

Maximum temperature yesterday: 90 °F (at 12:00 PM)
Minimum temperature yesterday: 75 °F (at 1:30 PM)
Average temperature yesterday: 78 °F

Past Weeks' High & Low Weather Summary

 TemperatureHumidityPressure
High91 °F (Jul 21, 1:00 PM)100% (Jul 16, 9:30 PM)29.89 "Hg (Jul 16, 9:30 PM)
Low75 °F (Jul 17, 12:30 AM)55% (Jul 24, 11:30 AM)29.71 "Hg (Jul 22, 3:00 PM)
Average82 °F83%29.82 "Hg
* Reported Jul 14 1:00 PM — Jul 29 1:30 PM, Bandar Seri Begawan, Weather by CustomWeather, © 2014

Note: Actual official high and low records may vary slightly from our data, if they occured in-between our weather recording intervals... More about our weather records

Advertising

Bandar Seri Begawan weather history for previous 24 hours

 ConditionsComfort  
Time TempWeatherWind HumidityBarometerVisibility
1:30 PM
Jul 29
86 °FBroken clouds.6 mph75%29.80 "Hg4 mi
1:00 PM86 °FPartly sunny.3 mph70%29.80 "Hg4 mi
12:30 PM84 °FPartly sunny.2 mph74%29.80 "Hg4 mi
12:00 PM84 °FPartly sunny.6 mph74%29.83 "Hg4 mi
11:30 AM82 °FPartly sunny.3 mph79%29.83 "Hg4 mi
11:00 AM82 °FPartly sunny.5 mph79%29.83 "Hg4 mi
10:30 AM82 °FPartly sunny.3 mph74%29.83 "Hg4 mi
10:00 AM82 °FPartly sunny.6 mph79%29.83 "Hg4 mi
9:30 AM82 °FPartly sunny.6 mph79%29.83 "Hg4 mi
9:00 AM81 °FPartly sunny.2 mph89%29.83 "Hg4 mi
8:30 AM79 °FPartly sunny.2 mph89%29.86 "Hg4 mi
8:00 AM77 °FBroken clouds.2 mph94%29.83 "Hg4 mi
7:30 AM77 °FBroken clouds.3 mph94%29.83 "Hg4 mi
7:00 AM75 °FBroken clouds.3 mph100%29.80 "Hg4 mi
6:30 AM75 °FBroken clouds.3 mph100%29.80 "Hg4 mi
6:00 AM75 °FPassing clouds.2 mph100%29.80 "Hg4 mi
5:30 AM75 °FPassing clouds.2 mph100%29.80 "Hg4 mi
5:00 AM77 °FPassing clouds.2 mph94%29.80 "Hg4 mi
4:30 AM77 °FPassing clouds.2 mph94%29.80 "Hg4 mi
4:00 AM77 °FPassing clouds.2 mph94%29.80 "Hg4 mi
3:30 AM77 °FPassing clouds.5 mph94%29.80 "Hg4 mi
3:00 AM77 °FPassing clouds.1 mph94%29.80 "Hg4 mi
2:30 AM77 °FPassing clouds.2 mph94%29.80 "Hg4 mi
2:00 AM77 °FPassing clouds.3 mph94%29.80 "Hg4 mi
1:30 AM77 °FPassing clouds.1 mph94%29.80 "Hg4 mi
1:00 AM77 °FPassing clouds.1 mph94%29.83 "Hg4 mi
12:30 AM77 °FPassing clouds.1 mph94%29.83 "Hg4 mi
12:00 AM75 °FPartly cloudy.1 mph100%29.83 "Hg4 mi
11:30 PM
Jul 28
75 °FPartly cloudy.3 mph100%29.83 "Hg4 mi
11:00 PM77 °FPassing clouds.1 mph94%29.83 "Hg4 mi
10:30 PM77 °FPassing clouds.1 mph94%29.83 "Hg4 mi
10:00 PM75 °FPassing clouds.2 mph100%29.83 "Hg4 mi
9:30 PM75 °FPassing clouds.2 mph100%29.80 "Hg6 mi
9:00 PM75 °FPassing clouds.1 mph94%29.80 "Hg6 mi
8:30 PM75 °FPassing clouds.1 mph94%29.80 "Hg6 mi
8:00 PM75 °FPassing clouds.1 mph94%29.80 "Hg6 mi
7:30 PM75 °FPassing clouds.2 mph94%29.77 "Hg6 mi
7:00 PM75 °FPartly cloudy.3 mph94%29.77 "Hg5 mi
6:30 PM75 °FSprinkles. Broken clouds.2 mph89%29.77 "Hg5 mi
6:00 PM77 °FScattered showers. Broken clouds.8 mph83%29.80 "Hg5 mi
5:30 PM79 °FPartly sunny.5 mph94%29.77 "Hg5 mi
5:00 PM79 °FPartly sunny.7 mph89%29.77 "Hg5 mi
4:30 PM79 °FPartly sunny.8 mph89%29.80 "Hg5 mi
4:00 PM77 °FPartly sunny.8 mph94%29.77 "Hg5 mi
3:30 PM77 °FLight rain. Partly sunny.6 mph94%29.77 "Hg5 mi
3:00 PM77 °FLight rain. Partly sunny.6 mph94%29.80 "Hg4 mi
2:30 PM75 °FThunderstorms. Partly sunny.6 mph100%29.80 "Hg4 mi
2:00 PM75 °FThunderstorms. Partly sunny.10 mph100%29.83 "Hg4 mi
Weather by CustomWeather, © 2014

See weather overviewHow to use our weather pages